Weather History for Kramfors Flygplats, Sweden

Change the Weather History Date:

Friday, January 18, 2013

  Actual Average Record
Temperature  
Mean Temperature -9 °F -  
Max Temperature -2 °F - - ()
Min Temperature -16 °F - - ()
Degree Days  
Heating Degree Days 74    
Moisture  
Dew Point -15 °F    
Average Humidity 79    
Maximum Humidity 85    
Minimum Humidity 70    
Precipitation  
Precipitation 0.00 in - - ()
Sea Level Pressure  
Sea Level Pressure 30.19 in    
Wind  
Wind Speed 5 mph ()    
Max Wind Speed 10 mph    
Max Gust Speed -    
Visibility 6.2 miles    
Events Snow    
T = Trace of Precipitation, MM = Missing Value Source: Averaged Metar Reports

Daily Weather History Graph

Daily Weather History Graph

Search for Another Location

Airport:

Trip Planner

Search our weather history database for the weather conditions in past years. The results will help you decide how hot, cold, wet, or windy it might be!

Date:

Astronomy

Jan. 18, 2013 Rise Set
Actual Time 8:57 AM CET 3:02 PM CET
Civil Twilight 7:56 AM CET 4:03 PM CET
Nautical Twilight 6:56 AM CET 5:03 PM CET
Astronomical Twilight 6:01 AM CET 5:58 PM CET
Moon 9:44 AM CET (1/18) 12:09 AM CET (1/18)
Length of Visible Light 8h 06m
Length of Day
6h 05m
Waxing Crescent, 45% of the Moon is Illuminated
Jan 18
Waxing Crescent
Jan 19
First Quarter
Jan 27
Full
Feb 3
Last Quarter
Feb 10
New

Hourly Weather History & Observations

Time (CET) Temp. Windchill Dew Point Humidity Pressure Visibility Wind Dir Wind Speed Gust Speed Precip Events Conditions
12:20 AM -16.6 °F -31.3 °F -22.0 °F 76% 30.36 in 6.2 mi North 5.8 mph - N/A   Partly Cloudy
12:50 AM -16.6 °F -26.8 °F -22.0 °F 76% 30.33 in 6.2 mi North 3.5 mph - N/A   Partly Cloudy
1:20 AM -16.6 °F - -22.0 °F 76% 30.33 in 6.2 mi NNW 2.3 mph - N/A   Partly Cloudy
1:50 AM -16.6 °F -26.8 °F -23.8 °F 70% 30.33 in 6.2 mi North 3.5 mph - N/A   Scattered Clouds
2:20 AM -16.6 °F -26.8 °F -22.0 °F 76% 30.33 in 6.2 mi NNW 3.5 mph - N/A   Partly Cloudy
2:50 AM -16.6 °F -32.9 °F -22.0 °F 76% 30.33 in 6.2 mi NNW 6.9 mph - N/A   Partly Cloudy
3:50 AM -16.6 °F -29.3 °F -22.0 °F 76% 30.30 in 6.2 mi NW 4.6 mph - N/A   Partly Cloudy
4:20 AM -16.6 °F -29.3 °F -22.0 °F 76% 30.30 in 6.2 mi NNW 4.6 mph - N/A   Partly Cloudy
4:50 AM -16.6 °F -29.3 °F -22.0 °F 76% 30.30 in 6.2 mi NW 4.6 mph - N/A   Partly Cloudy
5:20 AM -16.6 °F -29.3 °F -22.0 °F 76% 30.27 in 6.2 mi North 4.6 mph - N/A   Partly Cloudy
5:50 AM -16.6 °F -31.3 °F -22.0 °F 76% 30.27 in 6.2 mi NNW 5.8 mph - N/A   Partly Cloudy
6:20 AM -14.8 °F -30.8 °F -20.2 °F 77% 30.27 in 6.2 mi NW 6.9 mph - N/A   Partly Cloudy
6:50 AM -14.8 °F -32.2 °F -20.2 °F 77% 30.27 in 6.2 mi NNW 8.1 mph - N/A   Ice Crystals
7:20 AM -16.6 °F -32.9 °F -22.0 °F 76% 30.27 in 6.2 mi NW 6.9 mph - N/A   Scattered Clouds
7:50 AM -16.6 °F -32.9 °F -22.0 °F 76% 30.27 in 6.2 mi WNW 6.9 mph - N/A   Unknown
8:20 AM -16.6 °F -32.9 °F -22.0 °F 76% 30.27 in 6.2 mi NW 6.9 mph - N/A   Partly Cloudy
8:50 AM -16.6 °F -26.8 °F -22.0 °F 76% 30.24 in 6.2 mi NW 3.5 mph - N/A   Partly Cloudy
9:20 AM -16.6 °F -29.3 °F -22.0 °F 76% 30.27 in 6.2 mi NNW 4.6 mph - N/A   Partly Cloudy
9:50 AM -14.8 °F -29.1 °F -20.2 °F 77% 30.24 in 6.2 mi WNW 5.8 mph - N/A   Scattered Clouds
10:20 AM -14.8 °F -24.8 °F -20.2 °F 77% 30.24 in 6.2 mi NW 3.5 mph - N/A   Scattered Clouds
10:50 AM -13.0 °F -25.1 °F -18.4 °F 77% 30.24 in 6.2 mi NW 4.6 mph - N/A   Scattered Clouds
11:20 AM -13.0 °F -27.0 °F -18.4 °F 77% 30.21 in 6.2 mi NNW 5.8 mph - N/A   Partly Cloudy
11:50 AM -11.2 °F -26.4 °F -16.6 °F 77% 30.21 in 6.2 mi NW 6.9 mph - N/A   Partly Cloudy
12:20 PM -9.4 °F -22.7 °F -14.8 °F 77% 30.18 in 6.2 mi NW 5.8 mph - N/A   Partly Cloudy
12:50 PM -9.4 °F -24.3 °F -14.8 °F 77% 30.18 in 6.2 mi NW 6.9 mph - N/A   Scattered Clouds
1:20 PM -9.4 °F -20.9 °F -14.8 °F 77% 30.18 in 6.2 mi WNW 4.6 mph - N/A   Mostly Cloudy
1:50 PM -7.6 °F -20.6 °F -13.0 °F 77% 30.18 in 6.2 mi WNW 5.8 mph - N/A   Ice Crystals
2:20 PM -7.6 °F -20.6 °F -13.0 °F 77% 30.18 in 6.2 mi WNW 5.8 mph - N/A   Ice Crystals
2:50 PM -7.6 °F -20.6 °F -11.2 °F 84% 30.15 in 6.2 mi WNW 5.8 mph - N/A Snow Light Snow
3:20 PM -5.8 °F -21.2 °F -11.2 °F 77% 30.15 in 4.3 mi NW 8.1 mph - N/A Snow Light Snow
3:50 PM -5.8 °F -19.9 °F -9.4 °F 84% 30.12 in 6.2 mi WNW 6.9 mph - N/A   Ice Crystals
4:20 PM -5.8 °F -18.4 °F -9.4 °F 84% 30.12 in 6.2 mi NW 5.8 mph - N/A Snow Light Snow
4:50 PM -5.8 °F -18.4 °F -9.4 °F 84% 30.12 in 6.2 mi NW 5.8 mph - N/A Snow Light Snow
5:20 PM -4.0 °F -16.3 °F -9.4 °F 78% 30.12 in 6.2 mi NW 5.8 mph - N/A Snow Light Snow
5:50 PM -4.0 °F -16.3 °F -7.6 °F 85% 30.12 in 6.2 mi NW 5.8 mph - N/A Snow Light Snow
6:20 PM -5.8 °F -19.9 °F -9.4 °F 84% 30.09 in 6.2 mi WNW 6.9 mph - N/A Snow Light Snow
6:50 PM -4.0 °F -21.2 °F -9.4 °F 78% 30.09 in 6.2 mi NW 10.4 mph - N/A Snow Light Snow
7:20 PM -5.8 °F -18.4 °F -11.2 °F 77% 30.09 in 6.2 mi WNW 5.8 mph - N/A   Mostly Cloudy
7:50 PM -5.8 °F -19.9 °F -9.4 °F 84% 30.09 in - WNW 6.9 mph - N/A   Clear
8:20 PM -4.0 °F -16.3 °F -7.6 °F 85% 30.06 in - WNW 5.8 mph - N/A   Clear
8:50 PM -4.0 °F -17.8 °F -7.6 °F 85% 30.06 in 6.2 mi NW 6.9 mph - N/A   Mostly Cloudy
9:20 PM -4.0 °F -17.8 °F -7.6 °F 85% 30.06 in 6.2 mi NW 6.9 mph - N/A   Mostly Cloudy
9:50 PM -4.0 °F -17.8 °F -7.6 °F 85% 30.06 in 6.2 mi NW 6.9 mph - N/A   Scattered Clouds
10:20 PM -4.0 °F -17.8 °F -7.6 °F 85% 30.04 in 6.2 mi WNW 6.9 mph - N/A   Scattered Clouds
10:50 PM -2.2 °F -16.8 °F -7.6 °F 78% 30.04 in 6.2 mi NW 8.1 mph - N/A   Scattered Clouds
11:20 PM -2.2 °F -12.5 °F -7.6 °F 78% 30.04 in 6.2 mi NW 4.6 mph - N/A   Partly Cloudy
11:50 PM -2.2 °F -14.2 °F -5.8 °F 85% 30.01 in 6.2 mi WNW 5.8 mph - N/A   Partly Cloudy